Location: Clanezzo
(45.7500°N, 9.6000°E)
Time: 10:45:37
(UTC+00:00)

CUTE-I - Pass Details

Date: 05 December 2023
Orbit: 807 x 822 km, 98.7° (Epoch: 23 February)

Event Time Altitude Azimuth Distance (km) Brightness Sun altitude
Rises 16:38:51 0° 164° (SSE) 3,312 ? -10.3°
Reaches altitude 10° 16:41:10 10° 164° (SSE) 2,387 ? -10.7°
Maximum altitude 16:46:27 90° 82° (E) 818 ? -11.6°
Drops below altitude 10° 16:51:49 10° 346° (NNW) 2,414 ? -12.5°
Sets 16:54:10 0° 346° (NNW) 3,352 ? -12.8°
